Location: Aboncourt
(47.7710°N, 5.9826°E)
Time: 19:07:33
(UTC+00:00)

Cosmos 1812 Rocket - Pass Details

Date: 05 July 2020
Orbit: 605 x 633 km, 82.5° (Epoch: 12 August)

Event Time Altitude Azimuth Distance (km) Brightness Sun altitude
Rises 20:15:33 0° 349° (N) 2,883 8.0 -5.9°
Reaches altitude 10° 20:17:47 10° 348° (NNW) 1,971 7.1 -6.1°
Maximum altitude 20:22:08 77° 263° (W) 628 3.7 -6.7°
Drops below altitude 10° 20:26:26 10° 177° (S) 1,949 5.7 -7.2°
Enters shadow 20:28:09 - 177° (S) 2,649 6.3 -7.4°
